TimeEST,TemperatureF,Dew PointF,Humidity,Sea Level PressureIn,VisibilityMPH,Wind Direction,Wind SpeedMPH,Gust SpeedMPH,PrecipitationIn,Events,Conditions,WindDirDegrees,DateUTC
12:53 AM,66.9,57.9,73,30.06,10.0,ENE,5.8,-,N/A,,Mostly Cloudy,60,2013-02-05 05:53:00
1:53 AM,66.0,57.9,75,30.04,10.0,NE,5.8,-,N/A,,Clear,50,2013-02-05 06:53:00
2:53 AM,66.0,59.0,78,30.02,10.0,ENE,4.6,-,N/A,,Clear,60,2013-02-05 07:53:00
3:53 AM,66.0,59.0,78,30.02,10.0,NE,4.6,-,N/A,,Clear,50,2013-02-05 08:53:00
4:53 AM,66.9,59.0,76,30.01,10.0,ENE,6.9,-,N/A,,Clear,70,2013-02-05 09:53:00
5:53 AM,66.9,59.0,76,30.02,10.0,ENE,4.6,-,N/A,,Clear,60,2013-02-05 10:53:00
6:53 AM,66.9,59.0,76,30.04,10.0,ENE,5.8,-,N/A,,Partly Cloudy,60,2013-02-05 11:53:00
7:53 AM,68.0,60.1,76,30.05,10.0,NE,5.8,-,N/A,,Mostly Cloudy,50,2013-02-05 12:53:00
8:53 AM,70.0,61.0,73,30.06,10.0,ENE,5.8,-,N/A,,Mostly Cloudy,60,2013-02-05 13:53:00
9:53 AM,73.9,62.1,66,30.07,10.0,East,4.6,-,N/A,,Clear,90,2013-02-05 14:53:00
10:53 AM,75.9,62.1,62,30.08,10.0,East,10.4,-,N/A,,Scattered Clouds,100,2013-02-05 15:53:00
11:53 AM,75.0,61.0,62,30.08,10.0,East,9.2,-,N/A,,Overcast,80,2013-02-05 16:53:00
12:53 PM,78.1,62.1,58,30.05,10.0,East,10.4,-,N/A,,Mostly Cloudy,100,2013-02-05 17:53:00
1:53 PM,78.1,62.1,58,30.03,10.0,East,10.4,-,N/A,,Clear,100,2013-02-05 18:53:00
2:53 PM,75.9,62.1,62,30.03,10.0,East,9.2,-,N/A,,Mostly Cloudy,100,2013-02-05 19:53:00
3:53 PM,75.0,64.9,71,30.02,10.0,East,8.1,-,N/A,,Overcast,100,2013-02-05 20:53:00
4:53 PM,75.0,64.9,71,30.02,10.0,East,8.1,-,N/A,,Clear,90,2013-02-05 21:53:00
5:53 PM,73.9,64.9,73,30.02,10.0,East,6.9,-,N/A,,Partly Cloudy,100,2013-02-05 22:53:00
6:53 PM,73.0,64.0,73,30.02,10.0,ESE,5.8,-,N/A,,Clear,120,2013-02-05 23:53:00
7:53 PM,72.0,64.9,78,30.03,10.0,East,3.5,-,N/A,,Clear,80,2013-02-06 00:53:00
8:53 PM,71.1,64.9,81,30.04,10.0,ENE,3.5,-,N/A,,Clear,70,2013-02-06 01:53:00
9:53 PM,71.1,66.0,84,30.05,10.0,East,3.5,-,N/A,,Clear,100,2013-02-06 02:53:00
10:53 PM,72.0,64.9,78,30.06,10.0,ESE,3.5,-,N/A,,Clear,120,2013-02-06 03:53:00
11:53 PM,69.1,64.9,87,30.05,10.0,Calm,Calm,-,N/A,,Clear,0,2013-02-06 04:53:00